AB1OC Weather Reports


Display with metric or nautical units.
time (UTC)temp
F
wind
direction
speed
MPH
gust
MPH
rain 1hr
in
rain 24hr
in
rain mn
in
humidity
%
barometer
mb
20210802211616 76 308 0.0 2.0 0.00 0.02 0.01 46 1014.0
20210802204536 77 29 0.0 5.0 0.00 0.02 0.01 44 1013.6
20210802203013 77 290 0.0 3.0 0.00 0.02 0.01 47 1013.5
20210802201527 77 314 0.0 3.0 0.00 0.02 0.01 48 1013.2
20210802200008 76 314 1.0 8.0 0.00 0.02 0.01 48 1013.2
20210802194529 76 360 1.0 4.0 0.00 0.02 0.01 49 1013.0
20210802193016 76 213 0.0 7.0 0.00 0.02 0.01 55 1013.1
20210802191505 76 319 0.0 4.0 0.00 0.02 0.01 50 1013.0
20210802190139 75 98 1.0 5.0 0.00 0.02 0.01 54 1012.9
20210802184628 74 310 0.0 5.0 0.00 0.02 0.01 55 1012.8
20210802183218 75 251 0.0 7.0 0.00 0.02 0.01 55 1012.7
20210802181620 75 231 2.0 9.0 0.00 0.02 0.01 52 1012.6
20210802180117 75 323 1.0 6.0 0.00 0.02 0.01 52 1012.5
20210802174642 75 300 0.0 6.0 0.00 0.02 0.01 55 1012.3
20210802173210 74 331 0.0 3.0 0.00 0.02 0.01 56 1012.2
20210802170049 73 313 1.0 3.0 0.00 0.02 0.01 58 1012.1
20210802164553 73 296 1.0 5.0 0.00 0.02 0.01 60 1012.0
20210802163231 73 323 2.0 7.0 0.00 0.02 0.01 56 1011.9
20210802160117 74 127 1.0 3.0 0.00 0.02 0.01 58 1011.8
20210802154625 74 295 0.0 4.0 0.00 0.02 0.01 58 1011.8
20210802153128 72 304 1.0 4.0 0.00 0.02 0.01 60 1011.8
20210802151550 71 320 0.0 5.0 0.00 0.02 0.01 66 1011.7
20210802150109 69 345 0.0 6.0 0.00 0.02 0.01 69 1011.6
20210802144601 70 303 1.0 4.0 0.00 0.02 0.01 68 1011.5
20210802143103 69 293 1.0 3.0 0.00 0.02 0.01 70 1011.5
20210802141727 69 278 0.0 4.0 0.00 0.02 0.01 70 1011.3
20210802140034 68 108 0.0 5.0 0.00 0.02 0.01 74 1011.1
20210802134623 69 297 0.0 2.0 0.00 0.02 0.01 73 1010.9
20210802131505 67 30 0.0 3.0 0.00 0.02 0.01 78 1010.8
20210802130136 66 315 0.0 2.0 0.01 0.02 0.01 81 1010.7
20210802124545 65 317 0.0 3.0 0.01 0.02 0.01 83 1010.7
20210802123033 65 326 0.0 2.0 0.01 0.02 0.01 86 1010.7
20210802121613 64 250 0.0 2.0 0.01 0.02 0.01 88 1010.8
20210802120050 63 219 0.0 1.0 0.00 0.01 0.00 90 1010.8
20210802114519 62 271 0.0 1.0 0.00 0.01 0.00 93 1010.8
20210802113019 61 217 0.0 2.0 0.00 0.01 0.00 94 1010.7
20210802111552 60 259 0.0 0.0 0.00 0.01 0.00 94 1010.7
20210802110025 60 259 0.0 0.0 0.00 0.01 0.00 93 1010.6
20210802104509 60 259 0.0 0.0 0.00 0.01 0.00 93 1010.4
20210802103146 60 259 0.0 0.0 0.00 0.01 0.00 93 1010.3
20210802101713 60 259 0.0 0.0 0.00 0.01 0.00 92 1010.2
20210802100112 60 259 0.0 0.0 0.00 0.01 0.00 92 1010.1
20210802094538 61 259 0.0 0.0 0.00 0.01 0.00 92 1010.1
20210802093014 60 259 0.0 0.0 0.00 0.01 0.00 93 1010.0
20210802091512 61 259 0.0 0.0 0.00 0.01 0.00 93 1009.9
20210802090309 61 259 0.0 0.0 0.00 0.01 0.00 92 1010.0
20210802084800 61 259 0.0 0.0 0.00 0.01 0.00 92 1010.0
20210802083057 61 259 0.0 0.0 0.00 0.01 0.00 91 1009.8
20210802081537 62 259 0.0 0.0 0.00 0.01 0.00 91 1009.8
20210802080030 61 259 0.0 0.0 0.00 0.01 0.00 92 1009.7
20210802074546 61 259 0.0 0.0 0.00 0.01 0.00 92 1009.7
20210802073025 61 259 0.0 0.0 0.00 0.01 0.00 92 1009.9
20210802071530 61 259 0.0 0.0 0.00 0.01 0.00 92 1010.1
20210802070022 62 259 0.0 0.0 0.00 0.01 0.00 91 1010.1
20210802064540 62 260 0.0 0.0 0.00 0.01 0.00 92 1010.3
20210802063120 61 266 0.0 1.0 0.00 0.01 0.01 92 1010.2
20210802061514 61 266 0.0 0.0 0.00 0.01 0.01 92 1010.3
20210802060145 61 266 0.0 0.0 0.00 0.01 0.01 92 1010.3
20210802054636 61 266 0.0 0.0 0.00 0.01 0.01 91 1010.3
20210802053126 62 266 0.0 0.0 0.00 0.01 0.01 91 1010.1
20210802051613 62 266 0.0 0.0 0.00 0.01 0.01 91 1010.5
20210802050222 62 266 0.0 0.0 0.00 0.01 0.01 91 1010.4
20210802044623 62 265 0.0 0.0 0.00 0.01 0.01 91 1010.3
20210802043216 62 266 0.0 0.0 0.00 0.01 0.01 90 1010.5
20210802041758 62 266 0.0 1.0 0.00 0.01 0.01 89 1010.8
20210802040227 62 246 0.0 0.0 0.00 0.01 0.01 89 1011.0
20210802034642 63 246 0.0 1.0 0.01 0.01 0.01 88 1011.1
20210802031606 63 245 0.0 0.0 0.01 0.01 0.01 86 1011.4
20210802030029 64 245 0.0 0.0 0.01 0.01 0.01 84 1011.5
20210802024539 64 245 0.0 1.0 0.00 0.00 0.00 83 1011.5
20210802023040 65 198 0.0 4.0 0.00 0.00 0.00 81 1011.7
20210802021611 66 199 1.0 6.0 0.00 0.00 0.00 76 1011.9
20210802020051 68 229 0.0 3.0 0.00 0.00 0.00 70 1011.8
20210802014535 68 218 1.0 5.0 0.00 0.00 0.00 70 1011.8
20210802013106 68 114 0.0 2.0 0.00 0.00 0.00 70 1011.6
20210802011541 67 105 0.0 2.0 0.00 0.00 0.00 69 1011.6
20210802010006 67 121 0.0 2.0 0.00 0.00 0.00 68 1011.6
20210802004510 67 89 0.0 1.0 0.00 0.00 0.00 66 1011.5
20210802003004 68 9 0.0 0.0 0.00 0.00 0.00 65 1011.3
20210802001503 68 184 0.0 0.0 0.00 0.00 0.00 66 1011.4
20210802000005 68 53 0.0 1.0 0.00 0.00 0.00 65 1011.3
20210801233003 70 59 0.0 1.0 0.00 0.00 0.00 65 1011.1
20210801231636 71 54 0.0 1.0 0.00 0.00 0.00 67 1011.2
20210801230220 71 117 0.0 1.0 0.00 0.00 0.00 68 1011.0
20210801224636 72 234 0.0 1.0 0.00 0.00 0.00 67 1011.0
20210801223112 72 142 0.0 4.0 0.00 0.00 0.00 63 1011.0
20210801221616 73 115 0.0 1.0 0.00 0.00 0.00 65 1010.9
20210801220044 73 120 0.0 1.0 0.00 0.00 0.00 65 1011.0
20210801214522 74 120 0.0 2.0 0.00 0.00 0.00 63 1011.2
20210801213011 74 89 0.0 0.0 0.00 0.00 0.00 63 1011.3